星链-2321 (STARLINK-2321 )

导读

STARLINK-2321是美国SpaceX星链(Starlink)项目的卫星,于2021年3月14日发射升空,属于星链低轨互联网星座组网卫星。它依托近地轨道部署,旨在为全球提供高速低延迟互联网接入服务,填补偏远地区网络覆盖空白,支撑消费端与行业端网络应用,是星链大规模组网建设中的重要单元。

基本信息
目录编号:
47867
目录名称:
STARLINK-2321
国际标识:
2021-021H
轨道中心:
EARTH
卫星名称:
星链-2321
卫星全名:
星链-2321 (STARLINK-2321 )
卫星状态:
已陨落 最后检测时间 2025-02-21
发射日期:
2021-03-14 UTC
国别 :
美国 (US)
星等 :
--
该卫星已列入 空间交会检测服务 Space Conjunction Data Service (SCDS) ,当前飞行风险评估等级: 无高风险
轨道信息
数据来源 国际轨道数据
星历时间: 2025-02-21T01:11:53+0800
轨道信息已过期567天
半长轴: 6538.994km
偏心率: 0.000385
轨道倾角: 53.040°
近地点辐角 346.552°
升交点赤经 129.281°
平近点角 154.899°
近地点: 158.341km
远地点: 163.377km
周期: 87.705分钟
每日圈数: 16.418609
详细信息
固有亮度:
5
最大亮度:
2.5
卫星平台:
Starlink V1.0
覆盖范围:
全球
运营商:
太空探索技术公司
运营商所在国:
美国
制造商(研发单位):
太空探索技术公司
制造商所在国:
美国
使用方式:
暂无
卫星简介
星链(Starlink)计划是由太空探索技术公司(SpaceX)提出的一个巨型低轨卫星互联网星座项目,计划在2019年至2024年间在太空搭建由约1.2万颗卫星组成的“星链”网络,其中1584颗将部署在地球上空550千米处的近地轨道,并从2020年开始工作。该卫星仍在工作。
与全量物体交会距离演化趋势
与全量物体交会风险概率演化趋势